Temp
13 14 15 16 16 16 16 16 17 17 17 17 18 18 18 18 17 17 17 17 16 16 15 14 13 13 13 12 12 12 12 11 10 9 9 9 9 9 9 9 9 9 9 9
14 14 15 15 15 15 16 16 17 17 17 17 18 18 18 18 18 17 17 15 17 16 15 14 14 13 13 12 12 12 12 12 10 10 7 8 9 10 9 9 9 9 9 9
14 16 15 14 15 15 16 16 17 17 17 16 17 17 18 18 18 18 18 17 17 17 15 15 14 13 13 13 12 11 10 11 11 9 9 9 9 9 9 9 9 9 8 9
15 15 14 14 15 15 16 16 16 16 17 17 18 19 19 18 18 18 18 18 18 18 17 15 14 14 13 12 11 10 9 10 11 11 10 10 10 9 9 9 8 8 8 8
15 14 14 14 15 15 15 16 15 16 16 17 18 18 19 18 18 19 18 18 18 18 18 16 14 14 13 12 12 11 10 8 10 11 10 11 10 9 9 9 8 8 8 8
15 15 14 15 15 15 15 15 15 16 17 18 18 18 19 19 19 18 18 18 18 18 17 17 15 15 15 13 13 13 14 11 12 11 11 11 10 10 9 9 8 8 8 7
14 14 14 14 15 15 14 15 17 18 19 19 18 18 18 18 18 18 18 18 18 18 17 17 17 17 15 14 13 12 12 11 10 10 10 10 10 10 10 9 8 7 7 7
15 16 15 15 14 16 15 16 17 18 19 20 16 18 18 17 17 17 18 18 18 18 18 17 16 16 15 14 13 12 12 10 10 10 11 10 10 10 9 9 8 7 6 6
16 16 15 15 15 15 16 15 16 17 18 18 19 19 17 18 17 17 17 18 18 17 17 17 16 15 14 14 14 12 11 11 10 11 11 10 11 10 10 9 8 7 6 6
15 16 15 15 14 15 15 16 16 17 18 18 19 18 18 18 18 17 16 17 17 17 17 16 15 15 13 13 12 11 10 10 10 11 11 10 11 10 9 9 9 8 7 7
15 15 16 15 15 16 15 15 16 17 17 19 19 19 18 17 17 16 17 17 17 16 16 15 15 14 13 13 11 10 8 10 10 11 10 11 10 10 9 8 8 8 8 8
14 15 15 15 16 15 16 16 16 17 17 17 17 18 17 17 17 17 17 17 17 16 15 15 14 14 13 13 13 13 10 10 10 10 10 10 10 9 8 8 8 8 8 8
13 14 15 16 15 15 15 15 15 16 16 17 18 18 17 17 17 17 17 17 16 16 15 14 14 13 13 13 13 13 11 10 10 11 10 10 10 9 9 8 8 8 8 8
13 14 14 17 16 17 15 16 15 15 17 17 17 17 15 17 17 17 17 17 16 15 14 14 13 13 12 12 12 12 12 11 11 11 10 10 10 9 9 9 9 8 7 7
12 13 14 15 14 16 16 16 16 15 16 17 18 17 15 15 16 16 16 16 16 15 14 14 14 13 13 12 12 12 11 11 11 11 10 10 10 9 9 9 9 8 7 6
12 13 12 14 14 15 15 16 15 15 15 15 16 14 14 15 15 15 15 15 15 15 14 13 14 13 13 12 12 12 11 11 11 11 11 10 10 9 9 9 9 8 8 6
12 12 12 15 14 14 14 13 15 13 13 14 16 14 14 15 15 15 15 15 15 14 14 13 13 13 12 12 11 10 11 11 11 11 11 10 10 9 10 9 9 8 7 6
11 12 12 14 13 15 11 13 12 12 14 14 14 14 14 14 15 14 15 15 15 15 13 13 13 13 12 12 12 11 12 11 10 10 11 11 10 10 10 9 9 8 7 7
11 11 12 13 14 11 11 12 11 12 12 14 14 14 14 14 14 14 14 14 14 14 13 13 13 13 13 12 11 11 11 11 11 11 11 11 10 10 10 9 10 8 7 7
10 11 11 12 13 14 12 12 12 12 12 13 13 13 13 13 13 12 12 13 13 13 13 12 12 11 12 11 11 11 11 11 11 11 10 10 10 10 9 9 9 8 7 7
9 10 10 11 12 10 11 11 11 10 10 12 12 12 12 12 12 12 12 12 11 11 11 10 11 10 10 10 10 10 10 10 10 10 10 10 9 9 9 9 9 9 8 7
9 10 10 10 11 11 10 10 9 10 10 10 11 11 11 11 11 11 11 11 10 10 10 10 9 10 10 9 9 9 9 9 10 10 10 9 9 8 9 9 8 8 8 7
7 7 9 8 7 9 9 10 9 9 9 10 10 10 10 10 10 10 10 10 10 10 10 9 9 9 9 9 9 9 9 9 9 9 9 9 9 8 8 8 8 8 8 8
7 7 6 7 6 7 7 7 8 8 8 8 8 9 9 9 9 9 9 9 9 9 9 9 9 9 9 9 9 9 9 9 8 8 8 8 8 8 8 8 7 7 7 7
6 6 5 4 6 6 6 7 7 7 7 8 8 8 9 9 9 9 9 9 9 9 8 8 8 8 8 8 8 8 8 8 7 8 7 7 7 7 7 7 6 7 7 7
5 5 6 6 5 5 6 6 7 7 7 7 7 7 7 8 7 7 7 7 8 8 8 8 8 8 7 7 7 7 7 7 8 7 7 7 6 6 6 6 6 6 6 7
Height
3187 3190 3189 3190 3191 3192 3191 3193 3193 3192 3193 3192 3190 3188 3188 3187 3185 3183 3183 3182 3184 3185 3187 3188 3189 3187 3186 3186 3184 3183 3182 3182 3182 3181 3179 3179 3178 3177 3176 3175 3172 3170 3169 3169
3186 3183 3186 3187 3189 3190 3191 3191 3189 3189 3189 3189 3187 3185 3185 3184 3182 3182 3181 3179 3179 3181 3183 3184 3184 3184 3183 3180 3180 3181 3181 3181 3179 3175 3149 3177 3177 3175 3174 3172 3172 3170 3169 3168
3179 3181 3182 3184 3185 3186 3186 3186 3186 3186 3186 3186 3186 3183 3180 3181 3179 3177 3176 3176 3175 3176 3177 3179 3180 3181 3179 3176 3182 3186 3184 3181 3179 3169 3172 3173 3174 3171 3172 3170 3170 3169 3168 3168
3176 3177 3178 3180 3180 3183 3182 3183 3184 3183 3184 3181 3181 3177 3176 3177 3177 3176 3174 3173 3172 3172 3172 3174 3175 3176 3176 3179 3184 3184 3182 3180 3176 3173 3171 3170 3169 3169 3169 3169 3167 3167 3166 3167
3171 3172 3173 3175 3175 3179 3179 3180 3181 3180 3179 3179 3177 3177 3173 3174 3174 3173 3172 3171 3170 3169 3168 3169 3170 3171 3170 3176 3175 3174 3173 3179 3172 3168 3166 3166 3168 3168 3167 3166 3165 3164 3163 3164
3167 3167 3169 3169 3171 3174 3177 3177 3178 3177 3175 3170 3170 3170 3168 3168 3169 3170 3170 3169 3168 3165 3164 3164 3166 3164 3166 3168 3167 3170 3169 3167 3169 3167 3167 3167 3166 3166 3165 3162 3161 3161 3160 3161
3162 3163 3165 3166 3169 3170 3173 3174 3171 3168 3165 3163 3163 3167 3166 3166 3168 3168 3167 3166 3163 3162 3161 3162 3161 3160 3163 3166 3169 3168 3172 3168 3167 3165 3165 3167 3166 3164 3161 3159 3157 3156 3154 3157
3155 3156 3158 3160 3162 3165 3167 3168 3165 3160 3156 3154 3160 3161 3163 3163 3164 3164 3163 3161 3160 3159 3158 3160 3160 3161 3164 3166 3165 3167 3169 3164 3165 3165 3165 3166 3165 3162 3159 3156 3152 3150 3150 3152
3148 3150 3153 3155 3158 3162 3163 3164 3164 3161 3159 3156 3151 3154 3159 3159 3161 3159 3158 3157 3157 3157 3156 3157 3158 3159 3160 3162 3164 3164 3165 3163 3164 3165 3163 3165 3163 3161 3158 3155 3150 3148 3148 3149
3145 3147 3148 3151 3153 3156 3157 3159 3161 3160 3155 3153 3149 3153 3154 3155 3157 3157 3153 3153 3154 3154 3154 3155 3155 3157 3158 3159 3160 3159 3159 3161 3163 3163 3162 3163 3160 3159 3156 3153 3150 3148 3148 3149
3142 3145 3145 3148 3148 3149 3153 3154 3156 3153 3152 3146 3146 3147 3148 3152 3154 3152 3151 3151 3151 3152 3152 3152 3153 3154 3155 3156 3154 3152 3152 3158 3160 3160 3162 3160 3158 3157 3154 3152 3151 3150 3150 3149
3137 3140 3141 3142 3143 3145 3145 3147 3150 3150 3150 3151 3150 3147 3147 3150 3150 3149 3149 3149 3150 3150 3150 3151 3151 3152 3154 3154 3152 3152 3153 3157 3159 3160 3159 3157 3157 3155 3153 3152 3151 3151 3150 3150
3132 3134 3136 3137 3140 3141 3143 3145 3146 3147 3147 3144 3145 3142 3143 3147 3147 3146 3147 3147 3147 3148 3149 3150 3149 3149 3151 3152 3151 3151 3152 3155 3158 3159 3158 3157 3156 3155 3154 3152 3150 3150 3150 3150
3126 3129 3130 3126 3129 3131 3135 3139 3141 3143 3142 3140 3141 3142 3141 3143 3144 3144 3144 3144 3144 3146 3148 3149 3149 3149 3150 3150 3151 3151 3152 3154 3156 3157 3156 3156 3155 3155 3153 3152 3150 3150 3150 3149
3124 3126 3126 3126 3127 3127 3129 3131 3135 3137 3138 3136 3134 3136 3139 3141 3140 3141 3141 3142 3142 3143 3145 3147 3148 3147 3148 3150 3150 3150 3151 3153 3155 3155 3153 3153 3154 3153 3152 3151 3150 3151 3148 3147
3121 3123 3122 3123 3124 3125 3127 3128 3131 3133 3135 3137 3137 3136 3138 3139 3139 3139 3139 3140 3140 3141 3142 3144 3146 3146 3146 3146 3146 3147 3148 3151 3152 3151 3151 3151 3151 3151 3152 3150 3149 3149 3148 3146
3120 3121 3121 3118 3122 3123 3126 3127 3128 3129 3130 3134 3135 3135 3135 3136 3138 3138 3138 3138 3139 3139 3139 3140 3142 3143 3144 3143 3143 3144 3146 3146 3147 3148 3150 3148 3148 3149 3150 3149 3149 3149 3147 3144
3118 3119 3121 3117 3121 3120 3120 3121 3125 3127 3128 3130 3131 3132 3133 3134 3135 3135 3135 3136 3136 3135 3135 3137 3138 3139 3140 3141 3142 3143 3144 3144 3143 3144 3144 3143 3145 3146 3147 3147 3147 3149 3146 3143
3116 3117 3118 3118 3117 3119 3119 3120 3123 3126 3128 3128 3130 3131 3132 3132 3133 3132 3132 3132 3131 3130 3129 3130 3131 3132 3135 3136 3137 3138 3140 3140 3141 3142 3142 3142 3142 3143 3144 3144 3145 3147 3145 3143
3112 3114 3117 3116 3114 3115 3116 3117 3120 3122 3126 3125 3127 3127 3128 3130 3133 3129 3128 3127 3126 3125 3124 3125 3128 3128 3130 3131 3132 3134 3136 3137 3138 3138 3138 3137 3138 3138 3140 3141 3142 3143 3141 3142
3110 3110 3112 3113 3113 3113 3113 3115 3118 3123 3125 3121 3123 3124 3125 3126 3127 3126 3125 3123 3122 3121 3120 3120 3122 3123 3123 3125 3127 3129 3130 3133 3133 3132 3133 3132 3134 3134 3135 3137 3138 3138 3139 3139
3109 3109 3109 3111 3110 3112 3112 3114 3118 3117 3116 3118 3119 3120 3121 3122 3122 3122 3121 3120 3119 3117 3116 3120 3119 3118 3117 3119 3121 3123 3126 3127 3127 3128 3128 3128 3130 3131 3131 3133 3135 3135 3135 3135
3107 3106 3106 3108 3107 3107 3108 3110 3112 3113 3114 3115 3117 3117 3117 3117 3117 3116 3115 3115 3115 3115 3113 3113 3113 3113 3114 3114 3116 3117 3118 3120 3122 3124 3124 3125 3125 3127 3128 3129 3130 3130 3132 3131
3102 3102 3104 3105 3105 3105 3106 3107 3109 3110 3111 3112 3113 3113 3113 3113 3111 3110 3109 3109 3109 3109 3110 3109 3109 3109 3109 3110 3111 3112 3113 3114 3115 3116 3117 3117 3118 3120 3122 3122 3123 3124 3126 3125
3101 3102 3102 3103 3104 3105 3106 3107 3108 3108 3109 3109 3109 3109 3108 3107 3105 3104 3103 3102 3102 3102 3102 3103 3103 3102 3102 3103 3104 3105 3106 3107 3108 3108 3109 3111 3112 3114 3115 3115 3116 3118 3119 3119
3101 3102 3105 3106 3105 3106 3106 3105 3106 3106 3106 3106 3105 3105 3103 3101 3099 3098 3097 3096 3095 3093 3093 3093 3093 3094 3094 3095 3095 3096 3097 3098 3099 3100 3101 3102 3104 3106 3106 3107 3107 3109 3110 3110
Wind_Speed
15 18 21 20 20 22 18 16 20 19 14 12 18 17 14 14 16 14 16 20 19 13 14 16 18 17 13 12 13 10 10 7 13 15 15 10 9 9 10 11 12 13 11 9
21 24 19 17 16 18 21 22 26 21 18 14 16 16 17 13 13 14 16 18 13 16 18 22 22 21 18 20 18 10 12 21 22 31 11 10 10 10 9 10 11 9 10 7
24 20 18 19 17 19 22 23 22 23 17 16 18 21 17 12 10 12 14 16 19 12 20 26 25 23 25 26 15 10 7 24 31 6 13 14 12 11 11 9 10 10 8 7
22 20 19 17 18 19 22 19 18 22 22 25 15 20 12 10 9 6 5 7 9 11 15 27 27 27 29 24 17 14 12 22 23 21 15 16 12 13 12 10 10 13 11 10
20 18 21 24 25 17 19 14 13 14 19 23 22 17 20 12 12 9 10 11 13 15 10 20 28 31 32 20 25 19 19 15 25 11 13 13 15 14 13 12 13 14 14 13
21 16 16 17 19 20 13 13 13 13 18 23 26 19 22 16 8 9 10 12 17 11 9 16 26 34 29 27 29 22 37 5 17 14 14 11 13 14 14 15 14 15 16 16
22 23 17 15 14 16 16 14 16 13 14 17 12 13 21 16 13 15 13 14 17 12 8 9 22 23 24 28 27 27 26 5 8 12 9 11 9 11 12 13 15 16 17 17
28 25 23 20 24 21 20 19 19 13 12 16 11 13 19 11 14 12 15 14 14 10 6 6 8 17 16 20 25 22 18 2 9 6 7 7 9 9 7 12 16 16 16 18
20 24 13 17 22 23 20 18 19 17 15 13 14 9 13 15 13 16 16 17 15 8 8 5 9 9 11 16 17 21 9 5 12 8 6 8 9 8 8 9 9 7 8 11
22 16 16 14 14 21 23 15 16 19 16 10 13 11 16 13 9 8 8 9 5 5 2 7 8 7 10 12 8 18 10 7 9 7 4 7 8 8 6 7 8 4 1 3
24 18 15 13 18 18 21 24 20 16 9 11 9 11 4 5 8 8 7 3 4 5 7 8 2 5 12 18 6 11 12 10 8 3 4 4 8 7 6 6 5 6 3 1
25 20 24 17 15 15 16 19 27 23 18 21 18 19 5 8 12 12 10 9 7 6 6 2 2 3 4 9 8 12 10 8 4 5 5 4 6 5 7 5 3 3 2 1
20 24 23 24 17 18 19 18 18 17 18 16 13 13 10 11 11 12 13 10 8 6 4 2 2 2 4 5 5 7 6 3 6 7 2 4 6 5 6 5 3 3 3 2
17 15 23 26 26 22 26 23 20 19 19 21 19 9 5 13 12 13 15 15 11 7 1 2 3 4 8 5 7 10 8 6 7 5 3 4 6 5 5 3 5 5 5 4
10 10 16 20 14 12 17 22 20 22 22 15 16 10 8 7 8 11 13 13 11 8 4 6 5 9 11 10 8 8 8 7 7 4 3 4 6 5 4 4 6 6 5 5
2 4 5 9 11 15 17 17 18 16 14 13 8 9 5 5 5 6 5 7 7 8 9 11 9 11 14 13 12 11 9 8 7 7 5 6 6 6 6 4 4 5 5 0
6 3 5 10 7 11 13 10 14 14 13 13 13 11 7 3 3 4 7 10 11 10 13 14 13 13 18 16 16 13 11 11 11 9 10 7 7 7 6 4 3 4 2 4
5 7 7 2 9 12 5 13 11 12 14 13 11 6 2 5 9 11 10 12 16 18 11 17 16 16 19 20 20 20 14 13 14 12 11 10 10 9 8 6 5 7 1 3
12 8 7 11 14 2 2 11 10 12 11 15 13 9 10 11 10 15 15 18 18 18 19 17 21 21 19 23 24 22 21 14 16 12 19 14 14 12 12 10 8 8 5 3
15 15 11 7 13 10 6 15 19 18 10 15 14 13 13 12 7 14 17 20 19 18 15 12 20 21 19 20 23 22 21 17 17 19 16 12 16 15 14 14 12 12 7 6
6 11 17 17 15 5 12 18 21 14 9 20 18 16 15 15 16 18 18 18 13 11 10 15 20 22 20 19 21 21 19 18 19 18 15 14 19 16 17 15 17 15 13 10
8 7 9 14 15 12 10 13 15 15 13 14 18 19 19 20 20 20 17 12 8 6 12 12 17 23 22 19 18 17 17 20 21 18 16 14 17 18 19 20 19 19 18 16
8 11 6 9 5 11 15 18 19 18 16 16 19 18 18 19 19 18 16 16 16 12 13 16 20 22 22 23 22 21 20 20 20 19 21 20 18 20 19 20 20 21 23 24
11 11 7 7 9 10 12 14 14 16 16 16 15 15 15 17 19 21 23 23 23 20 19 20 22 26 28 29 25 22 24 24 24 22 23 23 23 23 23 21 17 21 23 28
8 5 5 8 12 10 8 7 8 9 11 12 13 15 17 20 23 25 26 26 26 26 26 25 27 32 34 34 34 34 31 31 28 25 27 28 28 27 26 23 23 23 29 28
6 9 7 7 6 6 6 7 8 10 12 14 16 18 21 23 25 26 27 27 27 26 27 29 30 35 40 40 40 40 40 38 36 38 39 33 30 30 28 24 22 25 29 29
Wind_Direction
236 232 236 241 244 248 261 253 261 261 266 270 277 281 290 290 285 271 263 271 270 261 244 238 227 226 212 224 229 239 261 278 279 274 269 281 294 310 320 330 339 347 0 1
228 236 238 243 235 240 251 257 258 263 265 258 270 279 282 289 281 272 263 266 276 261 243 234 228 227 227 228 231 248 267 313 297 283 271 273 293 301 306 321 321 331 335 350
233 242 236 239 242 244 248 254 261 259 254 265 268 279 276 275 285 282 270 271 282 250 231 225 229 231 233 237 234 247 286 333 336 288 275 277 282 294 295 300 307 306 307 302
241 235 238 235 241 240 249 251 260 257 254 256 235 272 271 270 283 307 307 321 310 301 239 220 222 229 236 240 234 255 245 314 328 331 284 286 290 292 285 290 293 291 284 274
235 232 235 241 241 241 245 247 253 257 250 250 250 262 268 260 275 279 307 318 317 319 276 220 219 228 234 233 237 239 312 310 335 312 328 288 280 281 283 295 294 281 274 267
237 235 235 241 238 228 225 241 256 259 247 237 245 244 265 265 269 280 297 323 323 322 254 214 209 232 231 227 233 233 325 17 22 329 317 292 278 282 290 300 299 274 263 258
232 236 237 219 215 215 218 232 242 225 222 242 232 230 262 280 281 289 278 302 307 313 282 233 226 259 239 236 241 240 327 334 331 314 291 283 279 291 298 304 294 278 255 250
224 231 231 224 223 220 223 229 245 254 250 237 195 248 263 269 290 278 275 274 299 308 308 303 292 256 252 255 258 264 297 262 314 326 301 287 301 301 309 314 303 274 258 237
230 232 233 224 226 218 223 229 239 264 264 277 265 235 279 269 289 289 275 270 279 298 310 342 331 321 286 282 279 254 241 214 250 277 289 291 322 319 320 343 322 287 270 227
225 239 220 211 194 216 221 236 222 231 262 251 254 251 270 278 275 320 290 278 267 296 274 325 342 30 46 37 297 254 211 229 259 245 274 299 335 322 322 359 26 62 287 235
216 220 204 203 205 214 217 227 234 263 258 278 263 262 251 260 268 294 324 291 324 315 288 310 15 47 79 54 328 270 231 219 220 240 256 318 340 333 346 11 24 53 48 83
214 226 233 218 218 222 224 227 223 228 222 242 273 277 226 245 269 275 285 290 281 291 288 271 41 11 106 85 63 74 131 174 215 257 240 349 330 342 358 0 5 1 12 17
203 221 228 234 227 234 226 224 223 231 248 256 261 246 211 232 240 245 260 274 270 263 257 169 74 15 172 122 131 130 127 184 246 283 279 334 333 339 353 3 359 316 301 293
213 216 225 233 230 228 216 223 223 223 228 233 227 223 203 219 229 241 251 254 257 268 269 184 176 227 211 189 152 154 177 217 243 264 253 311 329 321 348 14 18 330 299 267
191 223 231 240 255 228 224 223 218 217 226 249 254 193 219 231 243 260 271 276 266 252 244 218 213 227 220 220 201 191 182 210 234 253 235 278 302 303 310 335 357 3 347 267
230 234 230 227 237 225 218 220 213 209 218 219 204 172 174 119 85 40 319 317 300 267 234 219 226 223 217 218 226 218 210 234 259 298 287 253 278 285 308 323 339 348 4 170
235 227 219 207 190 180 183 186 194 195 196 195 201 196 190 195 332 326 327 325 319 295 245 226 226 220 212 216 220 219 227 235 246 267 271 249 263 275 294 301 318 285 44 97
235 232 238 190 189 214 172 190 182 189 193 190 186 198 267 295 297 301 305 293 291 294 253 240 233 224 217 220 223 220 210 253 246 251 265 254 245 260 266 259 268 262 291 91
237 227 235 234 227 151 181 197 169 178 194 194 198 217 270 273 282 294 297 294 287 286 283 249 225 231 230 226 228 230 230 266 238 254 291 281 252 248 256 254 252 250 246 236
241 232 225 227 247 229 157 219 196 183 191 203 219 239 234 238 266 268 290 290 289 291 284 256 223 227 227 234 241 232 234 234 234 266 274 264 263 253 250 252 247 248 242 250
232 226 226 226 238 232 233 210 200 200 207 217 227 226 228 238 254 269 280 286 291 283 256 219 216 211 216 223 234 242 242 232 242 267 262 276 250 242 247 252 254 250 249 252
229 224 216 226 234 226 226 209 196 215 227 220 224 230 234 243 254 262 268 278 281 244 239 242 235 221 210 211 211 214 220 232 241 250 266 268 248 254 255 255 249 250 248 255
235 220 211 208 207 229 208 216 213 223 236 238 236 238 244 250 253 258 265 275 276 267 253 239 231 226 222 208 203 204 214 220 233 251 268 264 255 250 250 255 257 255 256 265
239 236 213 194 198 182 188 208 224 229 230 229 233 237 245 255 263 268 273 276 277 274 257 250 249 240 227 212 210 218 217 221 230 237 251 253 258 252 249 247 246 262 269 273
208 184 153 140 150 150 152 176 199 215 226 233 243 256 267 271 273 276 279 280 279 276 272 261 247 239 235 231 236 243 250 249 245 237 247 254 255 253 250 241 242 262 265 265
151 158 148 174 165 181 233 259 259 261 261 265 271 276 278 279 285 290 293 295 294 289 278 269 260 252 248 249 252 254 255 257 257 259 255 253 252 249 242 244 252 253 261 261